1494374400.43,12712,12.31,72560.0,-14.57,-15.53,-15.53,0,*60
1494374401.71,12713,12.31,72558.8,-14.55,-15.57,-15.49,0,*6C
1494374402.94,12714,12.31,72558.5,-14.57,-15.53,-15.53,0,*66
1494374404.19,12715,12.31,72560.5,-14.55,-15.49,-15.49,0,*65
1494374405.42,12716,12.31,72558.5,-14.57,-15.53,-15.53,0,*64
1494374406.68,12717,12.31,72556.0,-14.55,-15.49,-15.49,0,*67
1494374407.93,12718,12.31,72558.3,-14.55,-15.49,-15.49,0,*68
1494374409.16,12719,12.31,72558.0,-14.57,-15.53,-15.53,0,*6B
1494374410.44,12720,12.31,72560.0,-14.55,-15.57,-15.53,0,*67
1494374411.67,12721,12.31,72558.3,-14.57,-15.53,-15.53,0,*60
1494374412.95,12722,12.31,72560.5,-14.55,-15.57,-15.49,0,*6E
1494374414.18,12723,12.31,72556.3,-14.57,-15.53,-15.53,0,*62
1494374415.43,12724,12.31,72558.5,-14.55,-15.49,-15.49,0,*67
1494374416.66,12725,12.31,72556.8,-14.57,-15.63,-15.63,0,*64
1494374417.88,12726,12.31,72560.0,-14.57,-15.49,-15.49,0,*67
1494374419.11,12727,12.31,72562.5,-14.57,-15.49,-15.49,0,*66
1494374420.37,12728,12.31,72562.5,-14.55,-15.49,-15.49,0,*6B
1494374421.64,12729,12.31,72556.5,-14.55,-15.49,-15.57,0,*65
1494374422.9,12730,12.31,72558.0,-14.55,-15.49,-15.49,0,*62
1494374424.13,12731,12.31,72562.0,-14.57,-15.53,-15.53,0,*61
1494374425.38,12732,12.31,72562.0,-14.55,-15.49,-15.49,0,*60
1494374426.61,12733,12.31,72560.5,-14.57,-15.53,-15.49,0,*68
1494374427.89,12734,12.31,72562.0,-14.53,-15.43,-15.43,0,*60
1494374429.15,12735,12.31,72560.8,-14.55,-15.49,-15.49,0,*67
1494374430.38,12736,12.31,72564.5,-14.57,-15.53,-15.53,0,*66
1494374431.63,12737,12.31,72564.5,-14.55,-15.49,-15.49,0,*65
1494374432.86,12738,12.31,72564.8,-14.57,-15.53,-15.53,0,*68
1494374434.09,12739,12.31,72560.0,-14.57,-15.49,-15.49,0,*69
1494374435.35,12740,12.31,72564.8,-14.55,-15.49,-15.49,0,*65
1494374436.63,12741,12.31,72560.8,-14.55,-15.43,-15.49,0,*6E
1494374437.91,12742,12.31,72562.0,-14.53,-15.39,-15.43,0,*6C
1494374439.14,12743,12.31,72562.5,-14.57,-15.49,-15.49,0,*64
1494374440.39,12744,12.31,72558.3,-14.57,-15.49,-15.43,0,*69
1494374441.62,12745,12.31,72560.0,-14.57,-15.49,-15.49,0,*62
1494374442.84,12746,12.31,72562.5,-14.57,-15.49,-15.49,0,*61
1494374444.15,12747,12.31,72562.5,-14.55,-15.43,-15.43,0,*62
1494374445.37,12748,12.31,72560.3,-14.57,-15.49,-15.49,0,*6F
1494374446.65,12749,12.31,72562.5,-14.57,-15.43,-15.43,0,*6E
1494374447.96,12750,12.31,72560.8,-14.55,-15.43,-15.43,0,*64
1494374449.21,12751,12.31,72560.3,-14.57,-15.43,-15.49,0,*6D
1494374450.44,12752,12.31,72560.3,-14.57,-15.49,-15.49,0,*64
1494374451.74,12753,12.31,72560.8,-14.55,-15.43,-15.43,0,*67
1494374453.0,12754,12.31,72560.8,-14.57,-15.43,-15.49,0,*68
1494374454.25,12755,12.31,72564.8,-14.57,-15.49,-15.43,0,*69
1494374455.5,12756,12.31,72562.5,-14.57,-15.43,-15.49,0,*6A
1494374456.81,12757,12.31,72560.8,-14.55,-15.43,-15.43,0,*63
1494374458.04,12758,12.31,72562.0,-14.57,-15.49,-15.49,0,*6E
1494374459.26,12759,12.31,72558.8,-14.57,-15.49,-15.49,0,*6F
1494374460.51,12760,12.31,72562.5,-14.57,-15.49,-15.35,0,*6E
1494374461.79,12761,12.31,72564.3,-14.57,-15.43,-15.43,0,*64
1494374463.04,12762,12.31,72560.8,-14.57,-15.43,-15.49,0,*6D
1494374464.27,12763,12.31,72560.8,-14.57,-15.49,-15.49,0,*66
1494374465.53,12764,12.31,72558.8,-14.57,-15.43,-15.49,0,*6B
1494374466.83,12765,12.31,72558.5,-14.55,-15.43,-15.39,0,*6F
1494374468.14,12766,12.31,72558.0,-14.55,-15.43,-15.39,0,*6C
1494374469.39,12767,12.31,72560.0,-14.57,-15.49,-15.43,0,*68
1494374470.69,12768,12.31,72560.5,-14.55,-15.39,-15.39,0,*6F
1494374472.0,12769,12.31,72558.5,-14.55,-15.39,-15.43,0,*63
1494374473.3,12770,12.31,72562.5,-14.55,-15.39,-15.39,0,*66
1494374474.56,12771,12.31,72562.8,-14.57,-15.43,-15.49,0,*6F
1494374475.86,12772,12.31,72562.0,-14.55,-15.39,-15.43,0,*69
1494374477.17,12773,12.31,72560.5,-14.55,-15.39,-15.39,0,*65
1494374478.45,12774,12.31,72562.5,-14.55,-15.29,-15.39,0,*63
1494374479.73,12775,12.31,72562.3,-14.55,-15.29,-15.43,0,*6F
1494374481.03,12776,12.31,72562.3,-14.55,-15.39,-15.39,0,*60
1494374482.29,12777,12.31,72562.8,-14.55,-15.29,-15.29,0,*61
1494374483.55,12778,12.31,72562.3,-14.55,-15.29,-15.29,0,*6E
1494374484.83,12779,12.38,72564.0,-14.55,-15.25,-15.39,0,*62
1494374486.09,12780,12.31,72562.8,-14.55,-15.29,-15.29,0,*69
1494374487.37,12781,12.31,72562.5,-14.55,-15.39,-15.29,0,*69
1494374488.63,12782,12.31,72560.8,-14.55,-15.29,-15.29,0,*6B
1494374489.86,12783,12.31,72562.0,-14.57,-15.29,-15.29,0,*68
1494374491.15,12784,12.31,72560.8,-14.55,-15.39,-15.29,0,*6C
1494374492.43,12785,12.31,72560.0,-14.55,-15.39,-15.25,0,*61
1494374493.71,12786,12.31,72556.8,-14.55,-15.39,-15.29,0,*6E
1494374494.97,12787,12.31,72558.3,-14.55,-15.29,-15.29,0,*6E
1494374496.25,12788,12.31,72554.8,-14.55,-15.39,-15.29,0,*60
1494374497.51,12789,12.31,72558.8,-14.55,-15.29,-15.25,0,*6C
1494374498.75,12790,12.31,72558.3,-14.53,-15.25,-15.29,0,*62
1494374500.01,12791,12.31,72556.5,-14.55,-15.29,-15.25,0,*65
1494374501.27,12792,12.31,72560.5,-14.55,-15.29,-15.29,0,*6A
1494374502.52,12793,12.31,72560.3,-14.55,-15.29,-15.29,0,*6B
1494374503.78,12794,12.31,72556.0,-14.55,-15.29,-15.29,0,*6C
1494374505.04,12795,12.31,72560.3,-14.55,-15.25,-15.29,0,*61
1494374506.3,12796,12.31,72562.3,-14.55,-15.29,-15.29,0,*6E
1494374507.55,12797,12.31,72558.3,-14.53,-15.25,-15.35,0,*68
1494374508.8,12798,12.31,72560.8,-14.49,-15.21,-15.25,0,*69
1494374510.04,12799,12.31,72560.3,-14.53,-15.25,-15.25,0,*67
1494374511.31,12800,12.31,72556.5,-14.53,-15.21,-15.21,0,*68
1494374512.54,12801,12.31,72558.8,-14.49,-15.25,-15.25,0,*62
1494374513.79,12802,12.31,72558.0,-14.53,-15.25,-15.21,0,*6E
1494374515.04,12803,12.31,72558.5,-14.53,-15.25,-15.21,0,*6F
1494374516.28,12804,12.31,72558.5,-14.53,-15.25,-15.25,0,*6C
1494374517.55,12805,12.31,72562.5,-14.53,-15.35,-15.21,0,*68
1494374518.79,12806,12.31,72558.3,-14.53,-15.25,-15.25,0,*6E
1494374520.06,12807,12.31,72556.3,-14.49,-15.21,-15.21,0,*64
1494374521.31,12808,12.31,72556.8,-14.53,-15.21,-15.25,0,*64
1494374522.56,12809,12.31,72554.8,-14.53,-15.21,-15.25,0,*65
1494374523.79,12810,12.31,72560.8,-14.49,-15.25,-15.25,0,*62
1494374525.03,12811,12.31,72556.8,-14.53,-15.25,-15.25,0,*68
1494374526.3,12812,12.31,72554.5,-14.49,-15.21,-15.21,0,*60
1494374527.56,12813,12.31,72554.8,-14.53,-15.21,-15.21,0,*6A
1494374528.8,12814,12.31,72556.0,-14.49,-15.25,-15.25,0,*66
1494374530.03,12815,12.31,72556.8,-14.49,-15.25,-15.25,0,*67
1494374531.26,12816,12.31,72560.3,-14.53,-15.25,-15.25,0,*6F
1494374532.52,12817,12.31,72558.8,-14.53,-15.25,-15.21,0,*6A
1494374533.77,12818,12.31,72558.0,-14.53,-15.25,-15.21,0,*65
1494374535.0,12819,12.31,72552.3,-14.53,-15.25,-15.25,0,*60
1494374536.24,12820,12.31,72552.5,-14.49,-15.25,-15.25,0,*61
1494374537.49,12821,12.31,72554.3,-14.53,-15.21,-15.25,0,*6F
1494374538.76,12822,12.31,72552.3,-14.49,-15.21,-15.21,0,*63
1494374540.01,12823,12.31,72552.5,-14.49,-15.25,-15.21,0,*66
1494374541.24,12824,12.31,72558.3,-14.53,-15.25,-15.25,0,*6E
1494374542.51,12825,12.31,72556.0,-14.53,-15.21,-15.21,0,*6F
1494374543.76,12826,12.31,72556.3,-14.53,-15.21,-15.25,0,*68
1494374545.01,12827,12.31,72558.5,-14.53,-15.21,-15.25,0,*69
1494374546.25,12828,12.31,72556.3,-14.53,-15.25,-15.25,0,*62
1494374547.5,12829,12.31,72556.5,-14.49,-15.25,-15.21,0,*6C
1494374548.75,12830,12.31,72558.5,-14.49,-15.25,-15.21,0,*64
1494374549.98,12831,12.31,72556.5,-14.49,-15.25,-15.25,0,*61
1494374551.23,12832,12.31,72558.8,-14.53,-15.21,-15.25,0,*6D
1494374552.49,12833,12.31,72556.8,-14.53,-15.25,-15.21,0,*6C
1494374553.74,12834,12.31,72562.0,-14.53,-15.35,-15.25,0,*6E
1494374554.99,12835,12.31,72562.5,-14.49,-15.25,-15.21,0,*61
1494374556.24,12836,12.31,72558.3,-14.49,-15.25,-15.21,0,*62
1494374557.48,12837,12.31,72558.8,-14.49,-15.25,-15.25,0,*67
1494374558.73,12838,12.31,72558.0,-14.49,-15.21,-15.25,0,*6C
1494374559.98,12839,12.31,72562.8,-14.49,-15.21,-15.25,0,*6D
1494374561.24,12840,12.31,72560.8,-14.49,-15.35,-15.25,0,*66
1494374562.49,12841,12.31,72556.0,-14.49,-15.35,-15.25,0,*67
1494374563.73,12842,12.31,72558.8,-14.49,-15.25,-15.25,0,*65
1494374564.98,12843,12.31,72556.0,-14.49,-15.25,-15.21,0,*60
1494374566.23,12844,12.31,72556.0,-14.49,-15.25,-15.21,0,*67
1494374567.46,12845,12.31,72554.8,-14.49,-15.25,-15.25,0,*62
1494374568.71,12846,12.31,72552.5,-14.49,-15.25,-15.21,0,*65
1494374569.99,12847,12.31,72552.0,-14.49,-15.35,-15.21,0,*65
1494374571.22,12848,12.31,72554.8,-14.49,-15.25,-15.25,0,*6F
1494374572.47,12849,12.31,72554.5,-14.49,-15.25,-15.21,0,*6A
1494374573.74,12850,12.31,72558.0,-14.49,-15.21,-15.21,0,*66
1494374574.99,12851,12.31,72552.0,-14.49,-15.25,-15.21,0,*63
1494374576.26,12852,12.31,72554.0,-14.49,-15.21,-15.21,0,*64
1494374577.49,12853,12.31,72554.5,-14.49,-15.25,-15.25,0,*65
1494374578.72,12854,12.31,72554.0,-14.49,-15.25,-15.25,0,*62
1494374579.96,12855,12.31,72552.5,-14.49,-15.25,-15.25,0,*63
1494374581.21,12856,12.31,72558.3,-14.49,-15.25,-15.21,0,*64
1494374582.48,12857,12.31,72556.0,-14.47,-15.21,-15.15,0,*68
1494374583.73,12858,12.31,72556.5,-14.49,-15.25,-15.21,0,*6A
1494374584.98,12859,12.31,72556.3,-14.49,-15.21,-15.25,0,*6B
1494374586.24,12860,12.31,72558.5,-14.45,-15.21,-15.21,0,*69
1494374587.51,12861,12.31,72558.3,-14.47,-15.21,-15.15,0,*6D
1494374588.8,12862,12.31,72556.0,-14.47,-15.21,-15.21,0,*69
1494374590.09,12863,12.31,72556.0,-14.47,-15.21,-15.21,0,*68
1494374591.38,12864,12.31,72556.8,-14.47,-15.21,-15.21,0,*6F
1494374592.67,12865,12.31,72556.5,-14.47,-15.21,-15.21,0,*6E
1494374593.92,12866,12.31,72558.3,-14.47,-15.15,-15.15,0,*6D
1494374595.21,12867,12.31,72556.0,-14.47,-15.21,-15.21,0,*6C
1494374596.49,12868,12.31,72558.5,-14.47,-15.15,-15.21,0,*64
1494374597.76,12869,12.31,72556.0,-14.47,-15.15,-15.21,0,*65
1494374599.05,12870,12.31,72558.3,-14.47,-15.21,-15.21,0,*6A
1494374600.34,12871,12.31,72556.3,-14.47,-15.21,-15.21,0,*6B
1494374601.61,12872,12.31,72558.8,-14.47,-15.21,-15.15,0,*6F
1494374602.86,12873,12.31,72558.8,-14.47,-15.29,-15.15,0,*66
1494374604.15,12874,12.31,72558.8,-14.47,-15.21,-15.21,0,*6E
1494374605.39,12875,12.31,72558.3,-14.45,-15.21,-15.15,0,*6A
1494374606.69,12876,12.31,72556.0,-14.47,-15.21,-15.21,0,*6C
1494374607.98,12877,12.31,72562.3,-14.47,-15.21,-15.21,0,*6D
1494374609.24,12878,12.31,72556.5,-14.45,-15.21,-15.21,0,*60
1494374610.52,12879,12.31,72558.5,-14.47,-15.29,-15.21,0,*6B
1494374611.79,12880,12.31,72556.3,-14.47,-15.29,-15.21,0,*6D
1494374613.04,12881,12.31,72558.5,-14.45,-15.29,-15.21,0,*6E
1494374614.28,12882,12.31,72556.5,-14.45,-15.21,-15.15,0,*62
1494374615.53,12883,12.31,72556.5,-14.45,-15.29,-15.21,0,*6C
1494374616.78,12884,12.31,72556.3,-14.45,-15.35,-15.29,0,*6E
1494374618.06,12885,12.31,72558.5,-14.47,-15.35,-15.15,0,*62
1494374619.32,12886,12.31,72556.8,-14.45,-15.21,-15.21,0,*61
1494374620.61,12887,12.31,72560.5,-14.47,-15.21,-15.21,0,*62
1494374621.89,12888,12.31,72560.8,-14.47,-15.29,-15.21,0,*65
1494374623.16,12889,12.31,72558.8,-14.47,-15.29,-15.21,0,*64
1494374624.44,12890,12.31,72560.0,-14.47,-15.29,-15.21,0,*6C
1494374625.69,12891,12.31,72556.8,-14.45,-15.29,-15.21,0,*6F
1494374626.98,12892,12.31,72560.3,-14.47,-15.35,-15.21,0,*63
1494374628.22,12893,12.31,72560.8,-14.45,-15.29,-15.29,0,*65
1494374629.49,12894,12.31,72558.8,-14.47,-15.29,-15.35,0,*6D
1494374630.75,12895,12.31,72558.5,-14.45,-15.35,-15.29,0,*6E
1494374632.0,12896,12.31,72560.3,-14.45,-15.35,-15.29,0,*6D
1494374633.26,12897,12.31,72562.3,-14.45,-15.35,-15.29,0,*6C
1494374634.53,12898,12.31,72560.3,-14.45,-15.35,-15.35,0,*6E
1494374635.76,12899,12.31,72562.5,-14.45,-15.29,-15.29,0,*6F
1494374637.04,12900,12.31,72560.5,-14.47,-15.29,-15.35,0,*61
1494374638.31,12901,12.31,72560.3,-14.47,-15.29,-15.21,0,*65
1494374639.57,12902,12.31,72562.5,-14.45,-15.35,-15.29,0,*61
1494374640.83,12903,12.31,72558.8,-14.45,-15.35,-15.29,0,*60
1494374642.08,12904,12.31,72556.3,-14.45,-15.35,-15.29,0,*67
1494374643.36,12905,12.31,72560.5,-14.47,-15.35,-15.29,0,*64
1494374644.62,12906,12.31,72558.8,-14.45,-15.35,-15.29,0,*65
1494374645.89,12907,12.31,72562.0,-14.45,-15.35,-15.35,0,*69
1494374647.14,12908,12.31,72560.3,-14.45,-15.29,-15.35,0,*6B
1494374648.41,12909,12.31,72560.0,-14.45,-15.35,-15.35,0,*67
1494374649.71,12910,12.31,72556.8,-14.47,-15.35,-15.35,0,*6D
1494374650.97,12911,12.31,72558.3,-14.45,-15.35,-15.29,0,*63
1494374652.2,12912,12.31,72558.0,-14.45,-15.29,-15.29,0,*6D
1494374653.5,12913,12.31,72558.8,-14.47,-15.35,-15.35,0,*6E
1494374654.75,12914,12.38,72562.0,-14.45,-15.35,-15.29,0,*66
1494374656.02,12915,12.31,72558.0,-14.45,-15.35,-15.35,0,*6A
1494374657.32,12916,12.31,72554.8,-14.47,-15.35,-15.35,0,*6B
1494374658.59,12917,12.31,72556.3,-14.45,-15.35,-15.35,0,*68
1494374659.89,12918,12.31,72554.5,-14.47,-15.35,-15.35,0,*65
1494374661.17,12919,12.31,72556.0,-14.45,-15.35,-15.35,0,*66
1494374662.46,12920,12.31,72556.5,-14.47,-15.35,-15.35,0,*6E
1494374663.71,12921,12.31,72558.5,-14.45,-15.29,-15.35,0,*60
1494374664.98,12922,12.38,72562.5,-14.45,-15.35,-15.35,0,*6E
1494374666.23,12923,12.31,72558.0,-14.45,-15.29,-15.35,0,*62
1494374667.51,12924,12.31,72558.3,-14.45,-15.35,-15.35,0,*68
1494374668.78,12925,12.31,72558.3,-14.45,-15.35,-15.35,0,*69
1494374670.05,12926,12.31,72554.0,-14.45,-15.35,-15.35,0,*6A
1494374671.32,12927,12.31,72558.0,-14.45,-15.35,-15.35,0,*6B
1494374672.59,12928,12.31,72556.0,-14.45,-15.35,-15.35,0,*64
1494374673.87,12929,12.31,72552.5,-14.45,-15.35,-15.35,0,*65
1494374675.16,12930,12.31,72554.5,-14.47,-15.35,-15.35,0,*6F
1494374676.46,12931,12.31,72552.3,-14.47,-15.35,-15.35,0,*6E
1494374677.74,12932,12.31,72552.3,-14.45,-15.35,-15.35,0,*6F
1494374679.01,12933,12.31,72550.8,-14.45,-15.35,-15.35,0,*6E
1494374680.28,12934,12.31,72554.5,-14.45,-15.39,-15.35,0,*65
1494374681.55,12935,12.31,72554.8,-14.45,-15.39,-15.35,0,*64
1494374682.83,12936,12.31,72552.5,-14.45,-15.39,-15.39,0,*6B
1494374684.11,12937,12.31,72552.0,-14.45,-15.35,-15.39,0,*66
1494374685.39,12938,12.31,72548.8,-14.47,-15.39,-15.49,0,*60
1494374686.67,12939,12.31,72550.8,-14.45,-15.39,-15.39,0,*64
1494374687.95,12940,12.31,72548.8,-14.45,-15.39,-15.39,0,*6A
1494374689.2,12941,12.31,72548.8,-14.47,-15.49,-15.49,0,*69
1494374690.51,12942,12.31,72548.0,-14.47,-15.39,-15.39,0,*6A
1494374691.81,12943,12.31,72550.8,-14.47,-15.39,-15.39,0,*6B
1494374693.09,12944,12.31,72548.3,-14.45,-15.39,-15.39,0,*6E
1494374694.37,12945,12.31,72554.5,-14.47,-15.49,-15.39,0,*6A
1494374695.65,12946,12.31,72552.0,-14.47,-15.49,-15.39,0,*69
1494374696.9,12947,12.31,72552.0,-14.47,-15.49,-15.49,0,*6F
1494374698.16,12948,12.31,72556.0,-14.47,-15.49,-15.49,0,*60
1494374699.44,12949,12.31,72548.5,-14.47,-15.49,-15.39,0,*66
1494374700.71,12950,12.31,72554.3,-14.47,-15.49,-15.39,0,*6E
1494374702.0,12951,12.31,72552.5,-14.47,-15.39,-15.49,0,*6F
1494374703.25,12952,12.31,72550.3,-14.47,-15.49,-15.49,0,*6B
1494374704.51,12953,12.31,72554.3,-14.45,-15.39,-15.49,0,*6F
1494374705.76,12954,12.31,72552.0,-14.47,-15.49,-15.49,0,*6D
1494374706.99,12955,12.31,72550.0,-14.45,-15.49,-15.49,0,*6E
1494374708.24,12956,12.31,72548.0,-14.47,-15.49,-15.49,0,*6F
1494374709.52,12957,12.31,72550.8,-14.47,-15.49,-15.39,0,*69
1494374710.8,12958,12.31,72550.8,-14.47,-15.39,-15.49,0,*66
1494374712.06,12959,12.31,72550.5,-14.47,-15.53,-15.49,0,*6B
1494374713.32,12960,12.31,72550.5,-14.47,-15.53,-15.49,0,*61
1494374714.57,12961,12.31,72550.0,-14.47,-15.49,-15.49,0,*6B
1494374715.83,12962,12.31,72546.5,-14.47,-15.49,-15.49,0,*68
1494374717.08,12963,12.31,72548.5,-14.47,-15.49,-15.49,0,*69
1494374718.34,12964,12.31,72548.5,-14.47,-15.53,-15.49,0,*65
1494374719.6,12965,12.31,72552.3,-14.47,-15.53,-15.53,0,*6F
1494374720.83,12966,12.31,72550.3,-14.45,-15.53,-15.49,0,*65
1494374722.08,12967,12.31,72548.8,-14.47,-15.53,-15.53,0,*6D
1494374723.31,12968,12.31,72548.5,-14.45,-15.49,-15.53,0,*6B
1494374724.57,12969,12.31,72550.5,-14.47,-15.53,-15.53,0,*63
1494374725.8,12970,12.31,72548.3,-14.45,-15.53,-15.49,0,*62
1494374727.05,12971,12.31,72552.5,-14.49,-15.53,-15.57,0,*60
1494374728.27,12972,12.31,72550.8,-14.49,-15.53,-15.67,0,*60
1494374729.53,12973,12.31,72552.0,-14.49,-15.57,-15.53,0,*62
1494374730.8,12974,12.31,72548.5,-14.49,-15.57,-15.57,0,*61
1494374732.05,12975,12.31,72550.0,-14.49,-15.57,-15.53,0,*64
1494374733.31,12976,12.31,72548.0,-14.49,-15.57,-15.53,0,*67
1494374734.58,12977,12.31,72548.8,-14.49,-15.57,-15.57,0,*62
1494374735.85,12978,12.31,72554.0,-14.49,-15.57,-15.57,0,*6D
1494374737.13,12979,12.31,72552.0,-14.49,-15.57,-15.57,0,*6C
1494374738.38,12980,12.31,72552.8,-14.49,-15.67,-15.57,0,*69
1494374739.62,12981,12.31,72550.8,-14.49,-15.57,-15.67,0,*68
1494374740.9,12982,12.31,72550.8,-14.49,-15.57,-15.57,0,*68
1494374742.15,12983,12.31,72552.5,-14.53,-15.67,-15.57,0,*61
1494374743.4,12984,12.31,72550.0,-14.47,-15.53,-15.53,0,*60
1494374744.68,12985,12.31,72554.8,-14.49,-15.57,-15.57,0,*6F
1494374745.95,12986,12.31,72554.3,-14.49,-15.57,-15.57,0,*6C
1494374747.22,12987,12.31,72554.0,-14.49,-15.57,-15.57,0,*6D
1494374748.5,12988,12.31,72552.8,-14.53,-15.57,-15.57,0,*69
1494374749.77,12989,12.31,72550.8,-14.49,-15.57,-15.57,0,*63
1494374751.05,12990,12.31,72554.3,-14.49,-15.57,-15.57,0,*6B
1494374752.3,12991,12.31,72554.3,-14.53,-15.67,-15.57,0,*62
1494374753.57,12992,12.31,72554.3,-14.53,-15.57,-15.57,0,*62
1494374754.85,12993,12.31,72554.3,-14.53,-15.57,-15.57,0,*63
1494374756.1,12994,12.31,72552.8,-14.53,-15.57,-15.53,0,*60
1494374757.38,12995,12.31,72554.5,-14.53,-15.57,-15.57,0,*65
1494374758.63,12996,12.31,72552.8,-14.53,-15.57,-15.53,0,*62
1494374759.86,12997,12.31,72558.0,-14.49,-15.67,-15.53,0,*6B
1494374761.13,12998,12.31,72556.3,-14.53,-15.57,-15.57,0,*68
1494374762.41,12999,12.31,72554.5,-14.49,-15.57,-15.57,0,*62
1494374763.63,13000,12.31,72556.3,-14.49,-15.67,-15.67,0,*6A
1494374764.87,13001,12.31,72560.3,-14.53,-15.57,-15.67,0,*63
1494374766.12,13002,12.31,72558.8,-14.49,-15.67,-15.57,0,*6B
1494374767.4,13003,12.31,72558.3,-14.53,-15.57,-15.57,0,*62
1494374768.67,13004,12.31,72562.0,-14.53,-15.57,-15.57,0,*65
1494374769.95,13005,12.31,72558.3,-14.53,-15.57,-15.57,0,*64
1494374771.2,13006,12.31,72556.5,-14.53,-15.57,-15.53,0,*63
1494374772.48,13007,12.31,72558.3,-14.49,-15.57,-15.57,0,*6D
1494374773.75,13008,12.31,72560.3,-14.53,-15.57,-15.43,0,*6C
1494374774.99,13009,12.31,72556.8,-14.53,-15.53,-15.53,0,*68
1494374776.26,13010,12.31,72562.0,-14.53,-15.43,-15.57,0,*65
1494374777.52,13011,12.31,72556.5,-14.49,-15.53,-15.57,0,*6E
1494374778.77,13012,12.31,72560.8,-14.53,-15.53,-15.57,0,*66
1494374780.02,13013,12.31,72558.8,-14.53,-15.57,-15.53,0,*67
1494374781.26,13014,12.31,72560.3,-14.53,-15.53,-15.53,0,*64
1494374782.51,13015,12.31,72562.3,-14.53,-15.57,-15.53,0,*61
1494374783.76,13016,12.31,72558.5,-14.53,-15.57,-15.53,0,*62
1494374785.02,13017,12.31,72562.3,-14.53,-15.57,-15.53,0,*63
1494374786.29,13018,12.31,72558.0,-14.53,-15.57,-15.57,0,*68
1494374787.57,13019,12.31,72562.3,-14.53,-15.57,-15.57,0,*69
1494374788.82,13020,12.31,72558.5,-14.55,-15.63,-15.63,0,*65
1494374790.09,13021,12.31,72560.8,-14.55,-15.57,-15.63,0,*63
1494374791.37,13022,12.31,72560.5,-14.55,-15.57,-15.49,0,*68
1494374792.6,13023,12.31,72556.0,-14.53,-15.53,-15.53,0,*60
1494374793.86,13024,12.31,72558.0,-14.53,-15.43,-15.53,0,*66
1494374795.14,13025,12.31,72556.3,-14.53,-15.57,-15.43,0,*63
1494374796.41,13026,12.31,72556.3,-14.53,-15.57,-15.43,0,*60
1494374797.67,13027,12.31,72556.5,-14.53,-15.57,-15.53,0,*60
1494374798.94,13028,12.31,72554.3,-14.53,-15.57,-15.57,0,*6B
1494374800.17,13029,12.31,72558.5,-14.53,-15.53,-15.53,0,*6A
1494374801.47,13030,12.31,72558.3,-14.55,-15.57,-15.57,0,*64
1494374802.75,13031,12.31,72556.3,-14.55,-15.63,-15.57,0,*62
1494374804.02,13032,12.31,72556.5,-14.55,-15.63,-15.57,0,*61
1494374805.32,13033,12.31,72562.0,-14.55,-15.57,-15.57,0,*67
1494374806.59,13034,12.31,72560.3,-14.55,-15.57,-15.63,0,*67
1494374807.82,13035,12.31,72562.3,-14.57,-15.63,-15.63,0,*63
1494374809.11,13036,12.31,72562.3,-14.55,-15.57,-15.57,0,*62
1494374810.39,13037,12.31,72556.8,-14.55,-15.63,-15.57,0,*64
1494374811.61,13038,12.31,72556.8,-14.57,-15.67,-15.63,0,*6A
1494374812.83,13039,12.31,72560.5,-14.57,-15.67,-15.63,0,*6B
1494374814.08,13040,12.31,72558.0,-14.55,-15.63,-15.63,0,*63
1494374815.36,13041,12.31,72556.3,-14.55,-15.63,-15.57,0,*65
1494374816.58,13042,12.31,72552.3,-14.57,-15.67,-15.53,0,*64
1494374817.84,13043,12.31,72558.8,-14.53,-15.57,-15.53,0,*62
1494374819.11,13044,12.31,72556.0,-14.55,-15.71,-15.57,0,*63
1494374820.34,13045,12.31,72556.3,-14.57,-15.63,-15.53,0,*67
1494374821.64,13046,12.31,72558.8,-14.55,-15.57,-15.57,0,*65
1494374822.86,13047,12.31,72558.8,-14.57,-15.63,-15.63,0,*66
1494374824.13,13048,12.31,72556.0,-14.55,-15.49,-15.57,0,*64
1494374825.43,13049,12.31,72556.8,-14.55,-15.57,-15.57,0,*6A
1494374826.66,13050,12.31,72558.5,-14.57,-15.63,-15.53,0,*63
1494374827.89,13051,12.31,72558.8,-14.57,-15.63,-15.53,0,*62
1494374829.11,13052,12.31,72556.3,-14.57,-15.63,-15.63,0,*62
1494374830.38,13053,12.31,72556.8,-14.55,-15.49,-15.57,0,*6E
1494374831.6,13054,12.31,72554.8,-14.57,-15.63,-15.63,0,*64
1494374832.83,13055,12.31,72558.5,-14.57,-15.53,-15.63,0,*66
1494374834.06,13056,12.31,72556.0,-14.57,-15.53,-15.53,0,*66
1494374835.31,13057,12.31,72558.5,-14.55,-15.49,-15.49,0,*65
1494374836.54,13058,12.31,72554.5,-14.57,-15.63,-15.53,0,*6B
1494374837.82,13059,12.31,72558.5,-14.55,-15.49,-15.57,0,*64
1494374839.04,13060,12.31,72554.5,-14.57,-15.63,-15.53,0,*60
1494374840.32,13061,12.31,72552.0,-14.55,-15.49,-15.57,0,*6F
1494374841.54,13062,12.31,72548.5,-14.57,-15.63,-15.53,0,*62
1494374842.77,13063,12.31,72552.8,-14.57,-15.63,-15.53,0,*63
1494374844.0,13064,12.31,72556.5,-14.57,-15.53,-15.53,0,*67
1494374845.23,13065,12.31,72554.0,-14.57,-15.53,-15.53,0,*66
1494374846.46,13066,12.31,72556.0,-14.57,-15.53,-15.53,0,*65
1494374847.68,13067,12.31,72558.0,-14.57,-15.63,-15.63,0,*64
1494374848.96,13068,12.31,72552.3,-14.55,-15.49,-15.57,0,*66
1494374850.21,13069,12.31,72552.3,-14.55,-15.49,-15.49,0,*68
1494374851.49,13070,12.31,72552.8,-14.55,-15.63,-15.57,0,*67
1494374852.71,13071,12.31,72548.3,-14.57,-15.63,-15.53,0,*60
1494374853.94,13072,12.31,72552.8,-14.57,-15.53,-15.53,0,*60
1494374855.17,13073,12.31,72552.8,-14.57,-15.53,-15.53,0,*61
1494374856.39,13074,12.31,72552.3,-14.57,-15.63,-15.63,0,*66
1494374857.62,13075,12.31,72554.5,-14.57,-15.63,-15.63,0,*67
1494374858.84,13076,12.31,72552.8,-14.57,-15.53,-15.63,0,*67
1494374860.07,13077,12.31,72554.0,-14.57,-15.63,-15.53,0,*66
1494374861.29,13078,12.31,72552.8,-14.57,-15.63,-15.63,0,*6A
1494374862.51,13079,12.31,72548.8,-14.57,-15.53,-15.63,0,*68
1494374863.74,13080,12.31,72550.5,-14.57,-15.53,-15.63,0,*6E
1494374864.97,13081,12.31,72548.0,-14.57,-15.53,-15.53,0,*6C
1494374866.2,13082,12.31,72550.0,-14.57,-15.53,-15.53,0,*6F
1494374867.42,13083,12.31,72554.0,-14.57,-15.53,-15.63,0,*6D
1494374868.7,13084,12.31,72552.5,-14.55,-15.57,-15.49,0,*64
1494374869.93,13085,12.31,72554.5,-14.57,-15.63,-15.53,0,*6B
1494374871.15,13086,12.31,72556.0,-14.57,-15.63,-15.53,0,*68
1494374872.38,13087,12.31,72552.8,-14.57,-15.63,-15.53,0,*69
1494374873.61,13088,12.31,72552.0,-14.57,-15.53,-15.63,0,*66
1494374874.84,13089,12.31,72548.5,-14.57,-15.53,-15.53,0,*64
1494374876.13,13090,12.31,72548.5,-14.55,-15.57,-15.57,0,*6E
1494374877.43,13091,12.31,72550.3,-14.55,-15.57,-15.57,0,*6F
1494374878.66,13092,12.31,72550.0,-14.57,-15.63,-15.53,0,*6D
1494374879.91,13093,12.31,72548.0,-14.59,-15.53,-15.53,0,*61
1494374881.17,13094,12.31,72552.0,-14.59,-15.53,-15.53,0,*66
1494374882.39,13095,12.31,72550.8,-14.57,-15.53,-15.53,0,*69
1494374883.62,13096,12.31,72550.5,-14.57,-15.53,-15.63,0,*69
1494374884.85,13097,12.31,72548.8,-14.57,-15.53,-15.53,0,*6B
1494374886.1,13098,12.31,72548.0,-14.59,-15.53,-15.53,0,*6A
1494374887.33,13099,12.31,72552.5,-14.57,-15.63,-15.53,0,*66
1494374888.55,13100,12.31,72548.3,-14.57,-15.53,-15.63,0,*67
1494374889.78,13101,12.31,72552.5,-14.57,-15.63,-15.53,0,*66
1494374891.03,13102,12.31,72554.3,-14.55,-15.49,-15.53,0,*6F
1494374892.29,13103,12.31,72552.5,-14.59,-15.53,-15.53,0,*69
1494374893.51,13104,12.31,72550.8,-14.57,-15.63,-15.53,0,*63
1494374894.74,13105,12.31,72554.8,-14.57,-15.63,-15.53,0,*62